Regional Weather Roundup
Issued by NWS

Home | Current Version | Previous Version | Graphics & Text | Print | Product List | Glossary On
Versions: 1 2 3 4 5 6 7 8 9 10 11 12 13 14 15 16 17 18 19 20 21 22 23 24 25 26 27 28 29 30 31 32 33 34 35 36 37 38 39 40 41 42 43 44 45 46 47 48 49 50
000
ASUS43 KBIS 210431
RWRND
NORTH DAKOTA REGIONAL WEATHER ROUNDUP
NATIONAL WEATHER SERVICE EASTERN NORTH DAKOTA/GRAND FORKS ND
1100 PM CDT FRI APR 20 2018

  NOTE: "FAIR" INDICATES FEW OR NO CLOUDS BELOW 12,000 FEET WITH NO
  SIGNIFICANT WEATHER AND/OR OBSTRUCTIONS TO VISIBILITY.

NDZ001>003-009>011-017-210500-
...NORTHWEST NORTH DAKOTA...

CITY           SKY/WX    TMP DP  RH WIND       PRES   REMARKS
WILLISTON      FAIR      52  35  52 S10       30.14S
MINOT          FAIR      42  33  70 SE7       30.22S
MINOT AFB      FAIR      40  36  85 S10       30.20S WCI  33
$$

NDZ018>021-031>035-040>046-210500-
...SOUTHWEST NORTH DAKOTA...

CITY           SKY/WX    TMP DP  RH WIND       PRES   REMARKS
BISMARCK       FAIR      41  32  70 S7        30.29F
DICKINSON      FAIR      43  38  82 S12       30.19S
GARRISON         N/A     42  32  67 S12       30.23F
HETTINGER      MOCLDY    41  35  79 S12       30.23S
$$

NDZ004>008-012>016-024-026-027-054-210500-
...NORTHEAST NORTH DAKOTA...

CITY           SKY/WX    TMP DP  RH WIND       PRES   REMARKS
GRAND FORKS    FAIR      38  32  79 S7        30.35S WCI  33
GRAND FORKS AF FAIR      40  31  69 S7        30.35S
DEVILS LAKE    FAIR      38  32  79 SE8       30.32S WCI  32
$$

NDZ022-023-025-028>030-036>039-047>053-210500-
...SOUTHEAST NORTH DAKOTA...

CITY           SKY/WX    TMP DP  RH WIND       PRES   REMARKS
JAMESTOWN      CLOUDY    42  36  79 S10       30.32F
FARGO          FAIR      44  35  70 S12       30.38R
WAHPETON       FAIR      37  34  87 SE9       30.39F WCI  31
$$



USA.gov is the U.S. government's official web portal to all federal, state and local government web resources and services.